Weather History for St. Petersburg, FL

Change the Weather History Date:

Saturday, October 12, 2013

  Actual Average Record
Temperature  
Mean Temperature 80 °F -  
Max Temperature 87 °F 84 °F 91 °F (1985)
Min Temperature 75 °F 70 °F 59 °F (1951)
Cooling Degree Days 16    
Growing Degree Days 30 (Base 50)    
Moisture  
Dew Point 65 °F    
Average Humidity 61    
Maximum Humidity 74    
Minimum Humidity 43    
Precipitation  
Precipitation 0.00 in - - ()
Sea Level Pressure  
Sea Level Pressure 30.01 in    
Wind  
Wind Speed 6 mph (NNE)    
Max Wind Speed 9 mph    
Max Gust Speed -    
Visibility 10 miles    
Events      
Averages and records for this station are not official NWS values.
T = Trace of Precipitation, MM = Missing Value Source: NWS Daily Summary

Daily Weather History Graph

Daily Weather History Graph

Search for Another Location

Airport:

Trip Planner

Search our weather history database for the weather conditions in past years. The results will help you decide how hot, cold, wet, or windy it might be!

Date:

Astronomy

Oct. 12, 2013 Rise Set
Actual Time 7:29 AM EDT 7:04 PM EDT
Civil Twilight 7:05 AM EDT 7:27 PM EDT
Nautical Twilight 6:38 AM EDT 7:54 PM EDT
Astronomical Twilight 6:11 AM EDT 8:22 PM EDT
Moon 2:43 PM EDT (10/12) 1:03 AM EDT (10/12)
Length of Visible Light 12h 22m
Length of Day
11h 35m
First Quarter, 58% of the Moon is Illuminated
Oct 12
First Quarter
Oct 18
Full
Oct 26
Last Quarter
Nov 3
New
Nov 10
First Quarter

Hourly Weather History & Observations

Time (EDT) Temp. Heat Index Dew Point Humidity Pressure Visibility Wind Dir Wind Speed Gust Speed Precip Events Conditions
12:53 AM 77.0 °F - 66.0 °F 69% 29.99 in 10.0 mi North 5.8 mph - N/A   Clear
1:53 AM 77.0 °F - 66.0 °F 69% 29.99 in 10.0 mi North 5.8 mph - N/A   Clear
2:53 AM 77.0 °F - 66.0 °F 69% 29.98 in 10.0 mi North 4.6 mph - N/A   Clear
3:53 AM 77.0 °F - 66.9 °F 71% 29.98 in 10.0 mi East 3.5 mph - N/A   Mostly Cloudy
4:53 AM 75.0 °F - 66.0 °F 73% 29.98 in 10.0 mi East 6.9 mph - N/A   Partly Cloudy
5:53 AM 75.9 °F - 66.0 °F 71% 29.99 in 10.0 mi East 5.8 mph - N/A   Partly Cloudy
6:53 AM 75.9 °F - 66.0 °F 71% 30.01 in 10.0 mi East 5.8 mph - N/A   Clear
7:53 AM 75.9 °F - 66.9 °F 74% 30.02 in 10.0 mi NNE 4.6 mph - N/A   Clear
8:53 AM 78.1 °F - 66.9 °F 68% 30.04 in 10.0 mi ENE 5.8 mph - N/A   Clear
9:53 AM 79.0 °F - 66.9 °F 66% 30.05 in 10.0 mi ENE 8.1 mph - N/A   Clear
10:53 AM 80.1 °F 82.3 °F 66.9 °F 64% 30.05 in 10.0 mi ENE 9.2 mph - N/A   Clear
11:53 AM 81.0 °F 83.0 °F 66.0 °F 60% 30.05 in 10.0 mi East 8.1 mph - N/A   Clear
12:53 PM 82.9 °F 84.6 °F 64.9 °F 54% 30.03 in 10.0 mi ENE 8.1 mph - N/A   Clear
1:53 PM 84.0 °F 85.8 °F 64.9 °F 53% 30.00 in 10.0 mi East 9.2 mph - N/A   Clear
2:53 PM 86.0 °F 86.1 °F 61.0 °F 43% 29.99 in 10.0 mi NNW 4.6 mph - N/A   Clear
3:53 PM 86.0 °F 86.3 °F 62.1 °F 44% 29.98 in 10.0 mi North 8.1 mph - N/A   Clear
4:53 PM 84.9 °F 85.0 °F 61.0 °F 44% 29.98 in 10.0 mi North 9.2 mph - N/A   Clear
5:53 PM 84.0 °F 84.5 °F 62.1 °F 47% 29.98 in 10.0 mi North 9.2 mph - N/A   Clear
6:53 PM 82.0 °F 82.7 °F 61.0 °F 49% 30.00 in 10.0 mi North 8.1 mph - N/A   Clear
7:53 PM 80.1 °F 81.7 °F 64.0 °F 58% 30.00 in 10.0 mi NW 8.1 mph - N/A   Clear
8:53 PM 79.0 °F - 64.0 °F 60% 30.02 in 10.0 mi NNW 8.1 mph - N/A   Clear
9:53 PM 79.0 °F - 64.9 °F 62% 30.04 in 10.0 mi NNW 9.2 mph - N/A   Clear
10:53 PM 78.1 °F - 64.9 °F 64% 30.04 in 10.0 mi NNW 6.9 mph - N/A   Clear
11:53 PM 78.1 °F - 64.0 °F 62% 30.04 in 10.0 mi NNW 5.8 mph - N/A   Clear